This is the latest recevied weather packets stored in our database for station/object N3TTT-13. If no packets are shown the sender has not sent any weather packets the latest 10 day(s).
| Time | Temp. | Humidity | Pressure | Rain* | Wind** | Luminosity | Snow |
|---|---|---|---|---|---|---|---|
| 1777551112 | 11.67° C | 96% | 1008.4 hPa | 0 mm | - | 107 W/m² | - |
| 1777550809 | 11.67° C | 96% | 1008 hPa | 0 mm | - | 109 W/m² | - |
| 1777550505 | 11.67° C | 96% | 1008.1 hPa | 0 mm | - | 106 W/m² | - |
| 1777550202 | 11.67° C | 96% | 1007.9 hPa | 0 mm | - | 110 W/m² | - |
| 1777549898 | 11.11° C | 96% | 1008.1 hPa | 0 mm | - | 120 W/m² | - |
| 1777549594 | 11.11° C | 96% | 1008.1 hPa | 0 mm | - | 96 W/m² | - |
| 1777549290 | 11.11° C | 96% | 1008.1 hPa | 0 mm | - | 94 W/m² | - |
| 1777548988 | 11.11° C | 96% | 1008.3 hPa | 0 mm | - | 103 W/m² | - |
| 1777548684 | 11.11° C | 97% | 1008.3 hPa | 0 mm | - | 131 W/m² | - |
| 1777548381 | 11.11° C | 96% | 1008.4 hPa | 0 mm | - | 108 W/m² | - |
| 1777548078 | 11.67° C | 97% | 1008.4 hPa | 0 mm | - | 64 W/m² | - |
| 1777547774 | 11.11° C | 97% | 1008.4 hPa | 0 mm | - | 55 W/m² | - |
| 1777547470 | 10.56° C | 97% | 1008.5 hPa | 0 mm | - | 52 W/m² | - |
| 1777547168 | 10.56° C | 97% | 1008.4 hPa | 0 mm | - | 49 W/m² | - |
| 1777546865 | 10.56° C | 97% | 1008.3 hPa | 0 mm | - | 37 W/m² | - |
| 1777546562 | 10.56° C | 97% | 1008.1 hPa | 0 mm | - | 37 W/m² | - |
| 1777546258 | 10.56° C | 97% | 1008.2 hPa | 0 mm | - | 30 W/m² | - |
| 1777545955 | 10° C | 97% | 1008 hPa | 0 mm | - | 27 W/m² | - |
| 1777545652 | 10° C | 97% | 1007.8 hPa | 0 mm | - | 22 W/m² | - |
| 1777545349 | 10° C | 97% | 1007.9 hPa | 0 mm | - | 17 W/m² | - |
| 1777545046 | 10° C | 97% | 1007.8 hPa | 0 mm | - | 12 W/m² | - |
| 1777544743 | 10° C | 97% | 1007.7 hPa | 0 mm | - | 10 W/m² | - |
| 1777544438 | 10° C | 97% | 1007.9 hPa | 0 mm | - | 7 W/m² | - |
| 1777544135 | 10.56° C | 97% | 1007.8 hPa | 0 mm | - | 3 W/m² | - |
| 1777543833 | 10.56° C | 97% | 1007.7 hPa | 0 mm | - | 1 W/m² | - |
* Rain latest hour (hover to see other rain measurements)
** Current wind speed in m/s (hover to see current wind gust speed)